Location: Holcomb Observatory and Planetarium
(39.8415°N, 86.1714°W)
Time: 14:20:34
(UTC-04:00)

ISS - Visible Passes

Search period start: 30 May 2016 00:00
Search period end: 09 June 2016 00:00
Orbit: 402 x 404 km, 51.6° (Epoch: 30 May)

Date Brightness Start Highest point End Pass type
(mag) Time Alt. Az. Time Alt. Az. Time Alt. Az.
30 May 0.3 01:19:27 10° NNW 01:20:18 11° N 01:21:09 10° NNE visible
30 May -0.7 02:55:06 10° NNW 02:57:42 21° NNE 03:00:19 10° ENE visible
30 May -3.4 04:31:09 10° WNW 04:34:22 56° SW 04:37:33 10° SE visible
30 May -0.5 22:47:14 10° WNW 22:49:45 20° NNW 22:52:18 10° NNE visible
31 May 0.2 00:26:23 10° NNW 00:27:11 11° N 00:27:59 10° NNE visible
31 May -0.2 02:02:37 10° NNW 02:04:43 16° NNE 02:05:59 13° NE visible
31 May -0.4 03:38:22 10° NW 03:38:27 10° NW 03:38:27 10° NW visible
31 May -1.2 21:53:53 10° W 21:56:49 30° NNW 21:59:46 10° NE visible
31 May 0.1 23:32:48 10° NNW 23:34:04 12° N 23:35:20 10° NNE visible
01 Jun 0.0 01:10:08 10° NNW 01:11:39 13° NNE 01:13:10 10° NE visible
01 Jun -0.4 02:45:43 10° NW 02:46:08 13° NW 02:46:08 13° NW visible
01 Jun -0.1 22:39:08 10° NW 22:40:58 14° NNW 22:42:49 10° NNE visible
02 Jun 0.0 00:17:33 10° NNW 00:18:32 11° N 00:19:31 10° NNE visible
02 Jun -0.5 01:53:09 10° NNW 01:54:27 18° NNW 01:54:27 18° NNW visible
02 Jun -0.3 21:45:32 10° WNW 21:47:55 18° NNW 21:50:19 10° NNE visible
02 Jun 0.1 23:24:39 10° NNW 23:25:23 11° N 23:26:08 10° NNE visible
03 Jun -0.5 01:00:37 10° NNW 01:02:53 17° NNE 01:03:01 17° NNE visible
03 Jun -0.1 22:31:08 10° NNW 22:32:14 11° N 22:33:20 10° NNE visible
04 Jun -0.3 00:08:06 10° NNW 00:09:48 13° NNE 00:11:30 10° NE visible
04 Jun -0.3 01:43:44 10° NW 01:44:16 14° NW 01:44:16 14° NW visible
04 Jun -0.2 23:15:31 10° NNW 23:16:39 11° N 23:17:47 10° NNE visible
05 Jun -0.9 00:51:05 10° NW 00:53:00 23° N 00:53:00 23° N visible
05 Jun -0.1 22:22:43 10° NNW 22:23:28 11° N 22:24:14 10° NNE visible
05 Jun -0.9 23:58:31 10° NNW 00:00:56 19° NNE 00:01:48 17° NE visible
06 Jun -0.5 23:05:57 10° NNW 23:07:49 14° NNE 23:09:42 10° NE visible
07 Jun -1.1 00:41:37 10° NW 00:43:12 25° NW 00:43:12 25° NW visible
07 Jun -0.4 22:13:22 10° NNW 22:14:39 12° N 22:15:56 10° NNE visible
07 Jun -1.8 23:48:56 10° NW 23:51:53 31° NNE 23:52:03 31° NE visible
08 Jun -1.1 22:56:18 10° NNW 22:58:51 21° NNE 23:00:56 12° ENE visible
